Time,TemperatureF,DewpointF,PressureIn,WindDirection,WindDirectionDegrees,WindSpeedMPH,WindSpeedGustMPH,Humidity,HourlyPrecipIn,Conditions,Clouds,dailyrainin,SolarRadiationWatts/m^2,SoftwareType,DateUTC
2013-10-24 00:04:00,64.0,46.0,-100.00,South,190,3.0,5.0,52,0.00,,,-99.99,0.000000,,2013-10-24 05:04:00,
2013-10-24 00:43:00,65.0,47.0,-100.00,South,187,6.0,9.0,52,0.00,,,0.00,0.000000,,2013-10-24 05:43:00,
2013-10-24 00:53:00,65.0,47.0,-100.00,South,187,6.0,9.0,52,0.00,,,0.00,0.000000,,2013-10-24 05:53:00,
2013-10-24 01:03:00,65.0,47.0,-100.00,South,187,6.0,9.0,52,0.00,,,0.00,0.000000,,2013-10-24 06:03:00,
2013-10-24 01:42:00,65.0,44.0,-100.00,South,184,6.0,11.0,47,0.00,,,0.00,0.000000,,2013-10-24 06:42:00,
2013-10-24 01:52:00,65.0,44.0,-100.00,South,184,6.0,11.0,47,0.00,,,0.00,0.000000,,2013-10-24 06:52:00,
2013-10-24 02:02:00,65.0,44.0,-100.00,South,184,6.0,11.0,47,0.00,,,0.00,0.000000,,2013-10-24 07:02:00,
2013-10-24 02:42:00,63.0,44.0,-100.00,South,180,6.0,10.0,49,0.00,,,0.00,0.000000,,2013-10-24 07:42:00,
2013-10-24 02:52:00,63.0,44.0,-100.00,South,180,6.0,10.0,49,0.00,,,0.00,0.000000,,2013-10-24 07:52:00,
2013-10-24 03:02:00,63.0,44.0,-100.00,South,180,6.0,10.0,49,0.00,,,0.00,0.000000,,2013-10-24 08:02:00,
2013-10-24 03:42:00,62.0,44.0,-100.00,South,191,5.0,9.0,51,0.00,,,0.00,0.000000,,2013-10-24 08:42:00,
2013-10-24 03:53:00,62.0,44.0,-100.00,South,191,5.0,9.0,51,0.00,,,0.00,0.000000,,2013-10-24 08:53:00,
2013-10-24 04:01:00,62.0,44.0,-100.00,South,191,5.0,9.0,51,0.00,,,0.00,0.000000,,2013-10-24 09:01:00,
2013-10-24 04:43:00,60.0,42.0,-100.00,South,189,5.0,9.0,52,0.00,,,0.00,0.000000,,2013-10-24 09:43:00,
2013-10-24 04:53:00,60.0,42.0,-100.00,South,189,5.0,9.0,52,0.00,,,0.00,0.000000,,2013-10-24 09:53:00,
2013-10-24 05:03:00,60.0,42.0,-100.00,South,189,5.0,9.0,52,0.00,,,0.00,0.000000,,2013-10-24 10:03:00,
2013-10-24 05:43:00,58.0,43.0,-100.00,South,189,3.0,9.0,57,0.00,,,0.00,0.000000,,2013-10-24 10:43:00,
2013-10-24 05:53:00,58.0,43.0,-100.00,South,189,3.0,9.0,57,0.00,,,0.00,0.000000,,2013-10-24 10:53:00,
2013-10-24 06:02:00,58.0,43.0,-100.00,South,189,3.0,9.0,57,0.00,,,0.00,0.000000,,2013-10-24 11:02:00,
2013-10-24 06:42:00,55.0,42.0,-100.00,SSE,165,3.0,6.0,61,0.00,,,0.00,0.000000,,2013-10-24 11:42:00,
2013-10-24 06:53:00,55.0,42.0,-100.00,SSE,165,3.0,6.0,61,0.00,,,0.00,0.000000,,2013-10-24 11:53:00,
2013-10-24 07:01:00,55.0,42.0,-100.00,SSE,165,3.0,6.0,61,0.00,,,0.00,0.000000,,2013-10-24 12:01:00,
2013-10-24 07:42:00,54.0,42.0,-100.00,South,171,3.0,5.0,63,0.00,,,0.00,0.000000,,2013-10-24 12:42:00,
2013-10-24 07:52:00,54.0,42.0,-100.00,South,171,3.0,5.0,63,0.00,,,0.00,0.000000,,2013-10-24 12:52:00,
2013-10-24 08:01:00,54.0,42.0,-100.00,South,171,3.0,5.0,63,0.00,,,0.00,0.000000,,2013-10-24 13:01:00,
2013-10-24 08:42:00,54.0,45.0,-100.00,SSW,195,3.0,4.0,72,0.00,,,-99.99,6.000000,,2013-10-24 13:42:00,
2013-10-24 08:52:00,54.0,45.0,-100.00,SSW,195,3.0,4.0,72,0.00,,,-99.99,6.000000,,2013-10-24 13:52:00,
2013-10-24 09:01:00,54.0,45.0,-100.00,SSW,195,3.0,4.0,72,0.00,,,-99.99,6.000000,,2013-10-24 14:01:00,
2013-10-24 09:42:00,61.0,47.0,-100.00,SSW,205,4.0,6.0,60,0.00,,,0.00,29.000000,,2013-10-24 14:42:00,
2013-10-24 09:52:00,61.0,47.0,-100.00,SSW,205,4.0,6.0,60,0.00,,,0.00,29.000000,,2013-10-24 14:52:00,
2013-10-24 10:01:00,61.0,47.0,-100.00,SSW,205,4.0,6.0,60,0.00,,,0.00,29.000000,,2013-10-24 15:01:00,
2013-10-24 10:43:00,67.0,50.0,-100.00,WSW,243,3.0,6.0,54,0.00,,,0.00,183.000000,,2013-10-24 15:43:00,
2013-10-24 10:53:00,67.0,50.0,-100.00,WSW,243,3.0,6.0,54,0.00,,,0.00,183.000000,,2013-10-24 15:53:00,
2013-10-24 11:03:00,67.0,50.0,-100.00,WSW,243,3.0,6.0,54,0.00,,,0.00,183.000000,,2013-10-24 16:03:00,
2013-10-24 11:43:00,73.0,50.0,-100.00,NW,316,3.0,6.0,44,0.00,,,0.00,579.000000,,2013-10-24 16:43:00,
2013-10-24 11:53:00,73.0,50.0,-100.00,NW,316,3.0,6.0,44,0.00,,,0.00,579.000000,,2013-10-24 16:53:00,
2013-10-24 12:03:00,73.0,50.0,-100.00,NW,316,3.0,6.0,44,0.00,,,0.00,579.000000,,2013-10-24 17:03:00,
2013-10-24 12:43:00,78.0,47.0,-100.00,NNW,328,4.0,7.0,34,0.00,,,0.00,785.000000,,2013-10-24 17:43:00,
2013-10-24 12:52:00,78.0,47.0,-100.00,NNW,328,4.0,7.0,34,0.00,,,0.00,785.000000,,2013-10-24 17:52:00,
2013-10-24 13:02:00,78.0,47.0,-100.00,NNW,328,4.0,7.0,34,0.00,,,0.00,785.000000,,2013-10-24 18:02:00,
2013-10-24 13:42:00,79.0,49.0,-100.00,North,0,5.0,9.0,35,0.00,,,-99.99,749.000000,,2013-10-24 18:42:00,
2013-10-24 13:53:00,79.0,49.0,-100.00,North,0,5.0,9.0,35,0.00,,,-99.99,749.000000,,2013-10-24 18:53:00,
2013-10-24 14:02:00,79.0,49.0,-100.00,North,0,5.0,9.0,35,0.00,,,-99.99,749.000000,,2013-10-24 19:02:00,
2013-10-24 14:43:00,79.0,49.0,-100.00,North,358,5.0,9.0,35,0.00,,,0.00,847.000000,,2013-10-24 19:43:00,
2013-10-24 14:53:00,79.0,49.0,-100.00,North,358,5.0,9.0,35,0.00,,,0.00,847.000000,,2013-10-24 19:53:00,
2013-10-24 15:02:00,79.0,49.0,-100.00,North,358,5.0,9.0,35,0.00,,,0.00,847.000000,,2013-10-24 20:02:00,
2013-10-24 15:43:00,80.0,47.0,-100.00,North,2,5.0,10.0,32,0.00,,,0.00,758.000000,,2013-10-24 20:43:00,
2013-10-24 15:53:00,80.0,47.0,-100.00,North,2,5.0,10.0,32,0.00,,,0.00,758.000000,,2013-10-24 20:53:00,
2013-10-24 16:02:00,80.0,47.0,-100.00,North,2,5.0,10.0,32,0.00,,,0.00,758.000000,,2013-10-24 21:02:00,
2013-10-24 16:43:00,81.0,48.0,-100.00,NNW,343,4.0,9.0,32,0.00,,,0.00,610.000000,,2013-10-24 21:43:00,
2013-10-24 16:54:00,81.0,48.0,-100.00,NNW,343,4.0,9.0,32,0.00,,,0.00,610.000000,,2013-10-24 21:54:00,
2013-10-24 17:04:00,81.0,48.0,-100.00,NNW,343,4.0,9.0,32,0.00,,,0.00,610.000000,,2013-10-24 22:04:00,
2013-10-24 17:43:00,80.0,47.0,-100.00,North,359,4.0,8.0,32,0.00,,,0.00,443.000000,,2013-10-24 22:43:00,
2013-10-24 17:54:00,80.0,47.0,-100.00,North,359,4.0,8.0,32,0.00,,,0.00,443.000000,,2013-10-24 22:54:00,
2013-10-24 18:03:00,80.0,47.0,-100.00,North,359,4.0,8.0,32,0.00,,,0.00,443.000000,,2013-10-24 23:03:00,
2013-10-24 18:43:00,77.0,49.0,-100.00,NNE,33,4.0,8.0,38,0.00,,,0.00,230.000000,,2013-10-24 23:43:00,
2013-10-24 18:53:00,77.0,49.0,-100.00,NNE,33,4.0,8.0,38,0.00,,,0.00,230.000000,,2013-10-24 23:53:00,
2013-10-24 19:02:00,77.0,49.0,-100.00,NNE,33,4.0,8.0,38,0.00,,,0.00,230.000000,,2013-10-25 00:02:00,
2013-10-24 20:43:00,68.0,50.0,-100.00,NE,46,6.0,9.0,53,0.00,,,0.00,0.000000,,2013-10-25 01:43:00,
2013-10-24 20:53:00,68.0,50.0,-100.00,NE,46,6.0,9.0,53,0.00,,,0.00,0.000000,,2013-10-25 01:53:00,
2013-10-24 21:02:00,68.0,50.0,-100.00,NE,46,6.0,9.0,53,0.00,,,0.00,0.000000,,2013-10-25 02:02:00,
2013-10-24 21:43:00,67.0,48.0,-100.00,NE,50,7.0,10.0,51,0.00,,,0.00,0.000000,,2013-10-25 02:43:00,
2013-10-24 21:52:00,67.0,48.0,-100.00,NE,50,7.0,10.0,51,0.00,,,0.00,0.000000,,2013-10-25 02:52:00,
2013-10-24 22:03:00,67.0,48.0,-100.00,NE,50,7.0,10.0,51,0.00,,,0.00,0.000000,,2013-10-25 03:03:00,
2013-10-24 22:44:00,65.0,46.0,-100.00,NE,48,7.0,13.0,51,0.00,,,0.00,0.000000,,2013-10-25 03:44:00,
2013-10-24 22:54:00,65.0,46.0,-100.00,NE,48,7.0,13.0,51,0.00,,,0.00,0.000000,,2013-10-25 03:54:00,
2013-10-24 23:04:00,65.0,46.0,-100.00,NE,48,7.0,13.0,51,0.00,,,0.00,0.000000,,2013-10-25 04:04:00,
2013-10-24 23:44:00,63.0,44.0,-100.00,NE,49,9.0,15.0,49,0.00,,,0.00,0.000000,,2013-10-25 04:44:00,
2013-10-24 23:54:00,63.0,44.0,-100.00,NE,49,9.0,15.0,49,0.00,,,0.00,0.000000,,2013-10-25 04:54:00,